Weather History for Spokane Felts, WA

Change the Weather History Date:

Sunday, August 18, 2013

  Actual Average Record
Temperature  
Mean Temperature 73 °F 69 °F  
Max Temperature 87 °F 84 °F 98 °F (2008)
Min Temperature 59 °F 55 °F 46 °F (1998)
Degree Days  
Heating Degree Days 0 1  
Month to date heating degree days 5 4  
Since 1 June heating degree days 110 143  
Since 1 July heating degree days 5 25  
Cooling Degree Days 8 5  
Month to date cooling degree days 160 109  
Year to date cooling degree days 525 327  
Since 1 June cooling degree days 499 320  
Growing Degree Days 23 (Base 50)    
Moisture  
Dew Point 45 °F    
Average Humidity 45    
Maximum Humidity 72    
Minimum Humidity 18    
Precipitation  
Precipitation 0.00 in 0.03 in 0.04 in (2008)
Month to date precipitation 1.46 0.37  
Year to date precipitation 9.42 10.41  
Sea Level Pressure  
Sea Level Pressure 29.99 in    
Wind  
Wind Speed 6 mph (SW)    
Max Wind Speed 17 mph    
Max Gust Speed 24 mph    
Visibility 10 miles    
Events      
T = Trace of Precipitation, MM = Missing Value Source: NWS Daily Summary

Daily Weather History Graph

Daily Weather History Graph

Search for Another Location

Airport:

Trip Planner

Search our weather history database for the weather conditions in past years. The results will help you decide how hot, cold, wet, or windy it might be!

Date:

Astronomy

Aug. 18, 2013 Rise Set
Actual Time 5:49 AM PDT 7:55 PM PDT
Civil Twilight 5:15 AM PDT 8:29 PM PDT
Nautical Twilight 4:34 AM PDT 9:10 PM PDT
Astronomical Twilight 3:47 AM PDT 9:56 PM PDT
Moon 6:09 PM PDT (8/18) 2:57 AM PDT (8/18)
Length of Visible Light 15h 13m
Length of Day
14h 06m
Waxing Gibbous, 93% of the Moon is Illuminated
Aug 18
Waxing Gibbous
Aug 20
Full
Aug 28
Last Quarter
Sep 5
New
Sep 12
First Quarter

Hourly Weather History & Observations

Time (PDT) Temp. Dew Point Humidity Pressure Visibility Wind Dir Wind Speed Gust Speed Precip Events Conditions
12:53 AM 61.0 °F 51.1 °F 70% 29.95 in 10.0 mi Calm Calm - N/A   Clear
1:53 AM 60.1 °F 48.9 °F 67% 29.95 in 10.0 mi NNE 3.5 mph - N/A   Clear
2:53 AM 61.0 °F 46.9 °F 60% 29.96 in 10.0 mi Calm Calm - N/A   Clear
3:53 AM 60.1 °F 48.0 °F 64% 29.98 in 10.0 mi Calm Calm - N/A   Clear
4:53 AM 64.0 °F 48.0 °F 56% 29.99 in 10.0 mi WSW 5.8 mph - N/A   Clear
5:53 AM 59.0 °F 48.0 °F 67% 30.01 in 10.0 mi Calm Calm - N/A   Clear
6:53 AM 63.0 °F 46.9 °F 56% 30.03 in 10.0 mi Calm Calm - N/A   Clear
7:53 AM 66.0 °F 46.0 °F 48% 30.04 in 10.0 mi SW 9.2 mph - N/A   Clear
8:53 AM 69.1 °F 46.9 °F 45% 30.05 in 10.0 mi SW 8.1 mph - N/A   Clear
9:53 AM 72.0 °F 46.9 °F 41% 30.06 in 10.0 mi WSW 6.9 mph - N/A   Clear
10:53 AM 77.0 °F 45.0 °F 32% 30.05 in 10.0 mi SSW 10.4 mph 18.4 mph N/A   Clear
11:53 AM 79.0 °F 45.0 °F 30% 30.04 in 10.0 mi WSW 12.7 mph 19.6 mph N/A   Clear
12:53 PM 81.0 °F 46.0 °F 29% 30.02 in 10.0 mi South 11.5 mph - N/A   Clear
1:53 PM 84.0 °F 45.0 °F 25% 30.01 in 10.0 mi SW 13.8 mph 19.6 mph N/A   Clear
2:53 PM 84.0 °F 45.0 °F 25% 29.99 in 10.0 mi WSW 8.1 mph - N/A   Partly Cloudy
3:53 PM 86.0 °F 39.0 °F 19% 29.97 in 10.0 mi SW 15.0 mph 20.7 mph N/A   Clear
4:53 PM 87.1 °F 39.0 °F 18% 29.95 in 10.0 mi SSW 13.8 mph 24.2 mph N/A   Clear
5:53 PM 86.0 °F 37.9 °F 18% 29.94 in 10.0 mi SW 10.4 mph - N/A   Clear
6:53 PM 84.0 °F 39.9 °F 21% 29.93 in 10.0 mi West 8.1 mph - N/A   Clear
7:53 PM 79.0 °F 42.1 °F 27% 29.93 in 10.0 mi WSW 5.8 mph - N/A   Clear
8:53 PM 71.1 °F 42.1 °F 35% 29.94 in 10.0 mi Calm Calm - N/A   Clear
9:53 PM 69.1 °F 42.1 °F 38% 29.95 in 10.0 mi Calm Calm - N/A   Clear
10:53 PM 64.0 °F 46.9 °F 54% 29.95 in 10.0 mi NNE 3.5 mph - N/A   Clear
11:53 PM 62.1 °F 46.0 °F 56% 29.95 in 10.0 mi Calm Calm - N/A   Clear